Time,TemperatureF,DewpointF,PressureIn,WindDirection,WindDirectionDegrees,WindSpeedMPH,WindSpeedGustMPH,Humidity,HourlyPrecipIn,Conditions,Clouds,dailyrainin,SoftwareType,DateUTC
2013-08-10 00:01:00,59.5,52.3,29.87,NNW,331,1.0,1.0,77,0.00,,,0.00,Wunderground v.1.15,2013-08-10 07:01:00,
2013-08-10 00:06:00,59.1,51.9,29.87,SW,236,0.0,1.0,77,0.00,,,0.00,Wunderground v.1.15,2013-08-10 07:06:00,
2013-08-10 00:11:00,58.7,51.9,29.87,ESE,108,0.0,1.0,78,0.00,,,0.00,Wunderground v.1.15,2013-08-10 07:11:00,
2013-08-10 00:21:00,58.3,52.2,29.88,East,81,1.0,1.0,80,0.00,,,0.00,Wunderground v.1.15,2013-08-10 07:21:00,
2013-08-10 00:26:00,58.2,52.1,29.89,East,81,0.0,1.0,80,0.00,,,0.00,Wunderground v.1.15,2013-08-10 07:26:00,
2013-08-10 00:35:00,57.9,52.1,29.89,East,95,0.0,1.0,81,0.00,,,0.00,Wunderground v.1.15,2013-08-10 07:35:00,
2013-08-10 00:40:00,57.7,51.9,29.89,SE,131,0.0,2.0,81,0.00,,,0.00,Wunderground v.1.15,2013-08-10 07:40:00,
2013-08-10 00:45:00,57.9,52.1,29.89,ESE,118,1.0,2.0,81,0.00,,,0.00,Wunderground v.1.15,2013-08-10 07:45:00,
2013-08-10 00:51:00,57.9,52.1,29.89,ESE,104,1.0,1.0,81,0.00,,,0.00,Wunderground v.1.15,2013-08-10 07:51:00,
2013-08-10 00:56:00,58.0,52.2,29.89,WNW,291,2.0,2.0,81,0.00,,,0.00,Wunderground v.1.15,2013-08-10 07:56:00,
2013-08-10 01:05:00,58.5,52.4,29.89,ESE,105,3.0,4.0,80,0.00,,,0.00,Wunderground v.1.15,2013-08-10 08:05:00,
2013-08-10 01:11:00,58.3,52.5,29.89,North,2,3.0,3.0,81,0.00,,,0.00,Wunderground v.1.15,2013-08-10 08:11:00,
2013-08-10 01:20:00,58.0,52.2,29.89,North,350,4.0,7.0,81,0.00,,,0.00,Wunderground v.1.15,2013-08-10 08:20:00,
2013-08-10 01:25:00,57.7,52.2,29.89,East,100,1.0,1.0,82,0.00,,,0.00,Wunderground v.1.15,2013-08-10 08:25:00,
2013-08-10 01:30:00,57.1,52.0,29.89,ENE,58,1.0,2.0,83,0.00,,,0.00,Wunderground v.1.15,2013-08-10 08:30:00,
2013-08-10 01:36:00,56.9,52.1,29.89,NNE,32,1.0,3.0,84,0.00,,,0.00,Wunderground v.1.15,2013-08-10 08:36:00,
2013-08-10 01:41:00,56.8,52.3,29.89,NW,321,2.0,3.0,85,0.00,,,0.00,Wunderground v.1.15,2013-08-10 08:41:00,
2013-08-10 01:46:00,56.8,52.0,29.90,North,350,2.0,2.0,84,0.00,,,0.00,Wunderground v.1.15,2013-08-10 08:46:00,
2013-08-10 01:55:00,56.7,52.2,29.89,NE,46,3.0,3.0,85,0.00,,,0.00,Wunderground v.1.15,2013-08-10 08:55:00,
2013-08-10 02:01:00,56.5,52.0,29.89,ENE,68,2.0,3.0,85,0.00,,,0.00,Wunderground v.1.15,2013-08-10 09:01:00,
2013-08-10 02:06:00,56.6,52.1,29.89,ESE,106,2.0,3.0,85,0.00,,,0.00,Wunderground v.1.15,2013-08-10 09:06:00,
2013-08-10 02:15:00,56.3,52.2,29.90,East,91,2.0,2.0,86,0.00,,,0.00,Wunderground v.1.15,2013-08-10 09:15:00,
2013-08-10 02:20:00,56.1,52.0,29.90,NE,41,2.0,2.0,86,0.00,,,0.00,Wunderground v.1.15,2013-08-10 09:20:00,
2013-08-10 02:26:00,55.7,51.9,29.90,ENE,75,2.0,2.0,87,0.00,,,0.00,Wunderground v.1.15,2013-08-10 09:26:00,
2013-08-10 02:31:00,55.7,51.9,29.89,North,11,2.0,2.0,87,0.00,,,0.00,Wunderground v.1.15,2013-08-10 09:31:00,
2013-08-10 02:40:00,55.4,51.6,29.90,ENE,76,2.0,2.0,87,0.00,,,0.00,Wunderground v.1.15,2013-08-10 09:40:00,
2013-08-10 02:45:00,55.2,51.4,29.90,NE,44,2.0,2.0,87,0.00,,,0.00,Wunderground v.1.15,2013-08-10 09:45:00,
2013-08-10 02:51:00,55.0,51.5,29.90,East,90,2.0,2.0,88,0.00,,,0.00,Wunderground v.1.15,2013-08-10 09:51:00,
2013-08-10 02:56:00,55.2,51.7,29.90,ENE,76,2.0,5.0,88,0.00,,,0.00,Wunderground v.1.15,2013-08-10 09:56:00,
2013-08-10 03:05:00,55.3,51.8,29.90,East,84,3.0,3.0,88,0.00,,,0.00,Wunderground v.1.15,2013-08-10 10:05:00,
2013-08-10 03:11:00,55.3,51.8,29.90,East,96,2.0,5.0,88,0.00,,,0.00,Wunderground v.1.15,2013-08-10 10:11:00,
2013-08-10 03:21:00,55.9,52.4,29.90,North,11,3.0,5.0,88,0.00,,,0.00,Wunderground v.1.15,2013-08-10 10:21:00,
2013-08-10 03:30:00,56.3,52.5,29.89,NW,308,4.0,4.0,87,0.00,,,0.00,Wunderground v.1.15,2013-08-10 10:30:00,
2013-08-10 03:35:00,56.4,52.3,29.90,North,359,3.0,3.0,86,0.00,,,0.00,Wunderground v.1.15,2013-08-10 10:35:00,
2013-08-10 03:40:00,56.3,52.2,29.89,NW,309,2.0,3.0,86,0.00,,,0.00,Wunderground v.1.15,2013-08-10 10:40:00,
2013-08-10 03:46:00,56.2,52.1,29.89,North,2,2.0,4.0,86,0.00,,,0.00,Wunderground v.1.15,2013-08-10 10:46:00,
2013-08-10 03:51:00,56.1,52.3,29.90,North,359,3.0,8.0,87,0.00,,,0.00,Wunderground v.1.15,2013-08-10 10:51:00,
2013-08-10 04:00:00,55.9,52.1,29.89,East,82,3.0,3.0,87,0.00,,,0.00,Wunderground v.1.15,2013-08-10 11:00:00,
2013-08-10 04:05:00,55.5,51.7,29.89,East,87,2.0,3.0,87,0.00,,,0.00,Wunderground v.1.15,2013-08-10 11:05:00,
2013-08-10 04:16:00,55.2,51.7,29.89,NE,51,2.0,2.0,88,0.00,,,0.00,Wunderground v.1.15,2013-08-10 11:16:00,
2013-08-10 04:25:00,55.0,51.8,29.89,NW,311,2.0,2.0,89,0.00,,,0.00,Wunderground v.1.15,2013-08-10 11:25:00,
2013-08-10 04:30:00,54.9,51.7,29.89,ESE,103,1.0,2.0,89,0.00,,,0.00,Wunderground v.1.15,2013-08-10 11:30:00,
2013-08-10 04:36:00,54.8,51.6,29.89,ESE,105,1.0,1.0,89,0.00,,,0.00,Wunderground v.1.15,2013-08-10 11:36:00,
2013-08-10 04:41:00,54.6,51.4,29.89,ESE,111,1.0,1.0,89,0.00,,,0.00,Wunderground v.1.15,2013-08-10 11:41:00,
2013-08-10 04:46:00,54.4,51.5,29.89,East,83,1.0,3.0,90,0.00,,,0.00,Wunderground v.1.15,2013-08-10 11:46:00,
2013-08-10 04:55:00,54.8,51.6,29.89,ENE,65,2.0,2.0,89,0.00,,,0.00,Wunderground v.1.15,2013-08-10 11:55:00,
2013-08-10 05:01:00,54.9,52.0,29.89,NNE,29,3.0,3.0,90,0.00,,,0.00,Wunderground v.1.15,2013-08-10 12:01:00,
2013-08-10 05:11:00,54.9,52.0,29.89,NNW,333,2.0,2.0,90,0.00,,,0.00,Wunderground v.1.15,2013-08-10 12:11:00,
2013-08-10 05:21:00,54.9,51.7,29.89,SE,129,1.0,1.0,89,0.00,,,0.00,Wunderground v.1.15,2013-08-10 12:21:00,
2013-08-10 05:30:00,54.1,51.2,29.89,ESE,105,1.0,1.0,90,0.00,,,0.00,Wunderground v.1.15,2013-08-10 12:30:00,
2013-08-10 05:36:00,54.0,51.4,29.90,NW,308,1.0,3.0,91,0.00,,,0.00,Wunderground v.1.15,2013-08-10 12:36:00,
2013-08-10 05:41:00,54.2,51.6,29.90,NNW,330,1.0,1.0,91,0.00,,,0.00,Wunderground v.1.15,2013-08-10 12:41:00,
2013-08-10 05:46:00,54.1,51.2,29.90,ENE,75,1.0,2.0,90,0.00,,,0.00,Wunderground v.1.15,2013-08-10 12:46:00,
2013-08-10 05:55:00,54.5,51.9,29.90,NE,38,1.0,1.0,91,0.00,,,0.00,Wunderground v.1.15,2013-08-10 12:55:00,
2013-08-10 06:00:00,54.6,51.7,29.90,ENE,61,1.0,1.0,90,0.00,,,0.00,Wunderground v.1.15,2013-08-10 13:00:00,
2013-08-10 06:06:00,54.7,51.8,29.90,ENE,70,1.0,1.0,90,0.00,,,0.00,Wunderground v.1.15,2013-08-10 13:06:00,
2013-08-10 06:15:00,54.2,51.3,29.90,NE,43,1.0,1.0,90,0.00,,,0.00,Wunderground v.1.15,2013-08-10 13:15:00,
2013-08-10 06:20:00,54.1,51.5,29.90,East,97,1.0,1.0,91,0.00,,,0.00,Wunderground v.1.15,2013-08-10 13:20:00,
2013-08-10 06:40:00,54.1,51.5,29.91,East,82,1.0,2.0,91,0.00,,,0.00,Wunderground v.1.15,2013-08-10 13:40:00,
2013-08-10 06:46:00,54.0,51.4,29.92,East,80,1.0,2.0,91,0.00,,,0.00,Wunderground v.1.15,2013-08-10 13:46:00,
2013-08-10 06:55:00,54.1,51.8,29.92,ENE,76,1.0,2.0,92,0.00,,,0.00,Wunderground v.1.15,2013-08-10 13:55:00,
2013-08-10 07:00:00,54.3,51.7,29.92,ENE,76,1.0,2.0,91,0.00,,,0.00,Wunderground v.1.15,2013-08-10 14:00:00,
2013-08-10 07:15:00,54.7,52.1,29.92,North,5,1.0,1.0,91,0.00,,,0.00,Wunderground v.1.15,2013-08-10 14:15:00,
2013-08-10 07:26:00,55.3,52.4,29.92,NNE,15,1.0,1.0,90,0.00,,,0.00,Wunderground v.1.15,2013-08-10 14:26:00,
2013-08-10 07:35:00,55.7,52.8,29.92,West,276,1.0,1.0,90,0.00,,,0.00,Wunderground v.1.15,2013-08-10 14:35:00,
2013-08-10 07:41:00,55.8,52.6,29.93,West,276,1.0,1.0,89,0.00,,,0.00,Wunderground v.1.15,2013-08-10 14:41:00,
2013-08-10 07:50:00,56.6,53.1,29.92,ENE,64,1.0,2.0,88,0.00,,,0.00,Wunderground v.1.15,2013-08-10 14:50:00,
2013-08-10 08:00:00,57.2,53.4,29.93,West,263,1.0,2.0,87,0.00,,,0.00,Wunderground v.1.15,2013-08-10 15:00:00,
2013-08-10 08:05:00,57.3,53.5,29.93,West,275,1.0,2.0,87,0.00,,,0.00,Wunderground v.1.15,2013-08-10 15:05:00,
2013-08-10 08:11:00,57.5,53.3,29.93,West,269,1.0,1.0,86,0.00,,,0.00,Wunderground v.1.15,2013-08-10 15:11:00,
2013-08-10 08:21:00,58.6,54.1,29.93,WSW,256,1.0,2.0,85,0.00,,,0.00,Wunderground v.1.15,2013-08-10 15:21:00,
2013-08-10 08:26:00,59.1,54.3,29.93,NNW,330,1.0,1.0,84,0.00,,,0.00,Wunderground v.1.15,2013-08-10 15:26:00,
2013-08-10 08:31:00,59.8,54.3,29.93,WSW,256,1.0,4.0,82,0.00,,,0.00,Wunderground v.1.15,2013-08-10 15:31:00,
2013-08-10 08:40:00,60.2,54.0,29.93,West,275,2.0,5.0,80,0.00,,,0.00,Wunderground v.1.15,2013-08-10 15:40:00,
2013-08-10 08:45:00,60.5,54.3,29.94,WNW,282,2.0,2.0,80,0.00,,,0.00,Wunderground v.1.15,2013-08-10 15:45:00,
2013-08-10 08:51:00,60.8,54.6,29.94,WNW,292,2.0,2.0,80,0.00,,,0.00,Wunderground v.1.15,2013-08-10 15:51:00,
2013-08-10 08:56:00,61.1,54.5,29.94,West,281,3.0,3.0,79,0.00,,,0.00,Wunderground v.1.15,2013-08-10 15:56:00,
2013-08-10 09:01:00,61.8,54.5,29.94,West,274,2.0,2.0,77,0.00,,,0.00,Wunderground v.1.15,2013-08-10 16:01:00,
2013-08-10 09:11:00,62.7,54.7,29.93,SW,226,2.0,4.0,75,0.00,,,0.00,Wunderground v.1.15,2013-08-10 16:11:00,
2013-08-10 09:21:00,63.5,55.1,29.93,WSW,237,2.0,2.0,74,0.00,,,0.00,Wunderground v.1.15,2013-08-10 16:21:00,
2013-08-10 09:26:00,63.9,55.1,29.93,West,260,2.0,2.0,73,0.00,,,0.00,Wunderground v.1.15,2013-08-10 16:26:00,
2013-08-10 09:31:00,64.3,55.5,29.93,WNW,285,1.0,1.0,73,0.00,,,0.00,Wunderground v.1.15,2013-08-10 16:31:00,
2013-08-10 09:36:00,65.2,55.6,29.93,SW,225,1.0,2.0,71,0.00,,,0.00,Wunderground v.1.15,2013-08-10 16:36:00,
2013-08-10 09:41:00,65.9,55.8,29.93,SSW,213,1.0,1.0,70,0.00,,,0.00,Wunderground v.1.15,2013-08-10 16:41:00,
2013-08-10 09:50:00,67.5,56.2,29.93,SSE,160,1.0,1.0,67,0.00,,,0.00,Wunderground v.1.15,2013-08-10 16:50:00,
2013-08-10 09:56:00,68.9,56.2,29.93,East,82,1.0,2.0,64,0.00,,,0.00,Wunderground v.1.15,2013-08-10 16:56:00,
2013-08-10 10:01:00,69.8,56.6,29.93,ESE,108,0.0,1.0,63,0.00,,,0.00,Wunderground v.1.15,2013-08-10 17:01:00,
2013-08-10 10:06:00,70.7,56.6,29.93,South,171,1.0,3.0,61,0.00,,,0.00,Wunderground v.1.15,2013-08-10 17:06:00,
2013-08-10 10:15:00,72.0,56.4,29.93,SE,128,1.0,1.0,58,0.00,,,0.00,Wunderground v.1.15,2013-08-10 17:15:00,
2013-08-10 10:20:00,71.8,56.2,29.93,ESE,114,1.0,2.0,58,0.00,,,0.00,Wunderground v.1.15,2013-08-10 17:20:00,
2013-08-10 10:26:00,72.2,56.1,29.93,WNW,283,1.0,1.0,57,0.00,,,0.00,Wunderground v.1.15,2013-08-10 17:26:00,
2013-08-10 10:31:00,72.7,56.1,29.93,ESE,123,1.0,1.0,56,0.00,,,0.00,Wunderground v.1.15,2013-08-10 17:31:00,
2013-08-10 10:36:00,73.2,56.1,29.93,SE,130,1.0,1.0,55,0.00,,,0.00,Wunderground v.1.15,2013-08-10 17:36:00,
2013-08-10 10:41:00,73.6,56.4,29.93,ESE,113,1.0,2.0,55,0.00,,,0.00,Wunderground v.1.15,2013-08-10 17:41:00,
2013-08-10 10:50:00,74.5,56.8,29.93,SSE,166,2.0,3.0,54,0.00,,,0.00,Wunderground v.1.15,2013-08-10 17:50:00,
2013-08-10 10:55:00,74.6,56.3,29.93,SSW,203,3.0,3.0,53,0.00,,,0.00,Wunderground v.1.15,2013-08-10 17:55:00,
2013-08-10 11:01:00,74.9,56.6,29.94,WSW,238,3.0,3.0,53,0.00,,,0.00,Wunderground v.1.15,2013-08-10 18:01:00,
2013-08-10 11:06:00,74.7,56.9,29.93,West,262,2.0,4.0,54,0.00,,,0.00,Wunderground v.1.15,2013-08-10 18:06:00,
2013-08-10 11:15:00,74.6,56.9,29.94,SSE,167,3.0,5.0,54,0.00,,,0.00,Wunderground v.1.15,2013-08-10 18:15:00,
2013-08-10 11:20:00,74.5,56.2,29.94,SE,140,3.0,5.0,53,0.00,,,0.00,Wunderground v.1.15,2013-08-10 18:20:00,
2013-08-10 11:25:00,74.6,56.9,29.94,South,186,2.0,5.0,54,0.00,,,0.00,Wunderground v.1.15,2013-08-10 18:25:00,
2013-08-10 11:30:00,74.8,56.5,29.94,ESE,120,2.0,5.0,53,0.00,,,0.00,Wunderground v.1.15,2013-08-10 18:30:00,
2013-08-10 11:36:00,75.1,57.3,29.94,ESE,117,2.0,2.0,54,0.00,,,0.00,Wunderground v.1.15,2013-08-10 18:36:00,
2013-08-10 11:41:00,75.3,57.0,29.94,SW,215,2.0,3.0,53,0.00,,,0.00,Wunderground v.1.15,2013-08-10 18:41:00,
2013-08-10 11:46:00,75.5,56.6,29.94,SE,139,2.0,2.0,52,0.00,,,0.00,Wunderground v.1.15,2013-08-10 18:46:00,
2013-08-10 11:55:00,76.1,56.7,29.94,South,191,2.0,2.0,51,0.00,,,0.00,Wunderground v.1.15,2013-08-10 18:55:00,
2013-08-10 12:00:00,76.1,56.7,29.94,ESE,106,2.0,2.0,51,0.00,,,0.00,Wunderground v.1.15,2013-08-10 19:00:00,
2013-08-10 12:06:00,76.4,56.4,29.93,SSE,150,2.0,2.0,50,0.00,,,0.00,Wunderground v.1.15,2013-08-10 19:06:00,
2013-08-10 12:16:00,77.8,56.5,29.93,SSE,160,1.0,1.0,48,0.00,,,0.00,Wunderground v.1.15,2013-08-10 19:16:00,
2013-08-10 12:25:00,79.0,56.5,29.93,ESE,112,2.0,2.0,46,0.00,,,0.00,Wunderground v.1.15,2013-08-10 19:25:00,
2013-08-10 12:30:00,79.7,56.5,29.93,SSE,163,2.0,2.0,45,0.00,,,0.00,Wunderground v.1.15,2013-08-10 19:30:00,
2013-08-10 12:36:00,79.8,56.6,29.93,SSE,167,2.0,2.0,45,0.00,,,0.00,Wunderground v.1.15,2013-08-10 19:36:00,
2013-08-10 12:45:00,80.0,56.7,29.92,NW,311,2.0,2.0,45,0.00,,,0.00,Wunderground v.1.15,2013-08-10 19:45:00,
2013-08-10 12:51:00,80.7,56.1,29.92,WNW,283,2.0,2.0,43,0.00,,,0.00,Wunderground v.1.15,2013-08-10 19:51:00,
2013-08-10 12:56:00,80.5,56.6,29.92,East,100,2.0,2.0,44,0.00,,,0.00,Wunderground v.1.15,2013-08-10 19:56:00,
2013-08-10 13:01:00,81.1,57.1,29.92,ESE,117,1.0,1.0,44,0.00,,,0.00,Wunderground v.1.15,2013-08-10 20:01:00,
2013-08-10 13:06:00,81.7,57.0,29.92,West,280,1.0,1.0,43,0.00,,,0.00,Wunderground v.1.15,2013-08-10 20:06:00,
2013-08-10 13:15:00,81.1,57.1,29.92,NW,317,3.0,3.0,44,0.00,,,0.00,Wunderground v.1.15,2013-08-10 20:15:00,
2013-08-10 13:20:00,81.2,57.2,29.92,SSW,195,2.0,3.0,44,0.00,,,0.00,Wunderground v.1.15,2013-08-10 20:20:00,
2013-08-10 13:26:00,80.8,56.9,29.91,WSW,250,3.0,3.0,44,0.00,,,0.00,Wunderground v.1.15,2013-08-10 20:26:00,
2013-08-10 13:31:00,81.4,56.8,29.91,NW,315,3.0,3.0,43,0.00,,,0.00,Wunderground v.1.15,2013-08-10 20:31:00,
2013-08-10 13:36:00,81.3,56.7,29.91,South,172,3.0,3.0,43,0.00,,,0.00,Wunderground v.1.15,2013-08-10 20:36:00,
2013-08-10 13:45:00,82.2,56.8,29.91,WSW,245,3.0,6.0,42,0.00,,,0.00,Wunderground v.1.15,2013-08-10 20:45:00,
2013-08-10 13:50:00,81.9,55.9,29.91,SSE,153,4.0,4.0,41,0.00,,,0.00,Wunderground v.1.15,2013-08-10 20:50:00,
2013-08-10 13:55:00,81.4,56.1,29.91,ESE,121,4.0,4.0,42,0.00,,,0.00,Wunderground v.1.15,2013-08-10 20:55:00,
2013-08-10 14:01:00,81.6,56.3,29.91,WNW,302,4.0,4.0,42,0.00,,,0.00,Wunderground v.1.15,2013-08-10 21:01:00,
2013-08-10 14:06:00,81.9,56.6,29.91,NNW,339,3.0,4.0,42,0.00,,,0.00,Wunderground v.1.15,2013-08-10 21:06:00,
2013-08-10 14:15:00,81.9,56.6,29.90,ESE,108,3.0,3.0,42,0.00,,,0.00,Wunderground v.1.15,2013-08-10 21:15:00,
2013-08-10 14:20:00,82.3,56.2,29.90,SSE,158,4.0,4.0,41,0.00,,,0.00,Wunderground v.1.15,2013-08-10 21:20:00,
2013-08-10 14:25:00,82.8,56.0,29.90,SSW,192,3.0,3.0,40,0.00,,,0.00,Wunderground v.1.15,2013-08-10 21:25:00,
2013-08-10 14:31:00,82.5,55.7,29.90,WNW,283,4.0,6.0,40,0.00,,,0.00,Wunderground v.1.15,2013-08-10 21:31:00,
2013-08-10 14:36:00,82.4,56.3,29.90,WNW,300,4.0,4.0,41,0.00,,,0.00,Wunderground v.1.15,2013-08-10 21:36:00,
2013-08-10 14:41:00,82.2,56.2,29.90,SSW,196,4.0,4.0,41,0.00,,,0.00,Wunderground v.1.15,2013-08-10 21:41:00,
2013-08-10 14:50:00,82.1,56.1,29.90,West,280,5.0,5.0,41,0.00,,,0.00,Wunderground v.1.15,2013-08-10 21:50:00,
2013-08-10 14:55:00,83.2,56.4,29.90,SW,232,3.0,3.0,40,0.00,,,0.00,Wunderground v.1.15,2013-08-10 21:55:00,
2013-08-10 15:00:00,82.7,55.9,29.90,SW,236,3.0,4.0,40,0.00,,,0.00,Wunderground v.1.15,2013-08-10 22:00:00,
2013-08-10 15:06:00,82.1,56.1,29.90,NNW,334,4.0,4.0,41,0.00,,,0.00,Wunderground v.1.15,2013-08-10 22:06:00,
2013-08-10 15:16:00,82.7,55.9,29.90,SSW,212,3.0,3.0,40,0.00,,,0.00,Wunderground v.1.15,2013-08-10 22:16:00,
2013-08-10 15:21:00,82.9,56.1,29.90,SSW,195,3.0,3.0,40,0.00,,,0.00,Wunderground v.1.15,2013-08-10 22:21:00,
2013-08-10 15:26:00,82.8,56.0,29.90,WNW,295,3.0,3.0,40,0.00,,,0.00,Wunderground v.1.15,2013-08-10 22:26:00,
2013-08-10 15:35:00,81.8,56.5,29.89,West,276,4.0,4.0,42,0.00,,,0.00,Wunderground v.1.15,2013-08-10 22:35:00,
2013-08-10 15:40:00,82.2,56.8,29.89,West,281,3.0,4.0,42,0.00,,,0.00,Wunderground v.1.15,2013-08-10 22:40:00,
2013-08-10 15:46:00,82.6,56.5,29.89,NW,311,3.0,3.0,41,0.00,,,0.00,Wunderground v.1.15,2013-08-10 22:46:00,
2013-08-10 15:51:00,82.9,56.8,29.89,ESE,115,2.0,3.0,41,0.00,,,0.00,Wunderground v.1.15,2013-08-10 22:51:00,
2013-08-10 15:56:00,82.8,56.7,29.89,SW,222,3.0,4.0,41,0.00,,,0.00,Wunderground v.1.15,2013-08-10 22:56:00,
2013-08-10 16:01:00,81.9,56.6,29.89,WSW,247,4.0,6.0,42,0.00,,,0.00,Wunderground v.1.15,2013-08-10 23:01:00,
2013-08-10 16:11:00,82.2,57.5,29.89,SSE,148,3.0,3.0,43,0.00,,,0.00,Wunderground v.1.15,2013-08-10 23:11:00,
2013-08-10 16:21:00,81.6,56.9,29.89,WSW,243,4.0,5.0,43,0.00,,,0.00,Wunderground v.1.15,2013-08-10 23:21:00,
2013-08-10 16:30:00,81.8,56.5,29.89,WSW,255,3.0,4.0,42,0.00,,,0.00,Wunderground v.1.15,2013-08-10 23:30:00,
2013-08-10 16:36:00,81.0,56.4,29.89,WSW,238,4.0,7.0,43,0.00,,,0.00,Wunderground v.1.15,2013-08-10 23:36:00,
2013-08-10 16:41:00,80.5,56.6,29.89,SW,226,4.0,4.0,44,0.00,,,0.00,Wunderground v.1.15,2013-08-10 23:41:00,
2013-08-10 16:46:00,80.9,56.9,29.89,WNW,287,3.0,4.0,44,0.00,,,0.00,Wunderground v.1.15,2013-08-10 23:46:00,
2013-08-10 16:51:00,81.5,56.8,29.88,SW,222,3.0,5.0,43,0.00,,,0.00,Wunderground v.1.15,2013-08-10 23:51:00,
2013-08-10 16:56:00,80.3,56.4,29.89,SSW,203,4.0,5.0,44,0.00,,,0.00,Wunderground v.1.15,2013-08-10 23:56:00,
2013-08-10 17:05:00,80.3,56.4,29.89,West,264,5.0,6.0,44,0.00,,,0.00,Wunderground v.1.15,2013-08-11 00:05:00,
2013-08-10 17:11:00,80.8,56.2,29.89,SSW,210,3.0,3.0,43,0.00,,,0.00,Wunderground v.1.15,2013-08-11 00:11:00,
2013-08-10 17:21:00,79.9,56.0,29.89,WSW,245,4.0,4.0,44,0.00,,,0.00,Wunderground v.1.15,2013-08-11 00:21:00,
2013-08-10 17:26:00,80.1,55.6,29.89,NNW,342,3.0,4.0,43,0.00,,,0.00,Wunderground v.1.15,2013-08-11 00:26:00,
2013-08-10 17:31:00,80.2,55.7,29.89,NE,40,2.0,2.0,43,0.00,,,0.00,Wunderground v.1.15,2013-08-11 00:31:00,
2013-08-10 17:40:00,79.9,54.8,29.89,WNW,299,3.0,3.0,42,0.00,,,0.00,Wunderground v.1.15,2013-08-11 00:40:00,
2013-08-10 17:45:00,79.4,55.0,29.89,SE,130,3.0,3.0,43,0.00,,,0.00,Wunderground v.1.15,2013-08-11 00:45:00,
2013-08-10 17:51:00,79.3,54.9,29.89,West,276,3.0,3.0,43,0.00,,,0.00,Wunderground v.1.15,2013-08-11 00:51:00,
2013-08-10 17:56:00,79.0,55.2,29.88,West,262,3.0,5.0,44,0.00,,,0.00,Wunderground v.1.15,2013-08-11 00:56:00,
2013-08-10 18:01:00,78.6,55.5,29.88,West,264,3.0,4.0,45,0.00,,,0.00,Wunderground v.1.15,2013-08-11 01:01:00,
2013-08-10 18:06:00,78.7,55.6,29.88,West,279,3.0,4.0,45,0.00,,,0.00,Wunderground v.1.15,2013-08-11 01:06:00,
2013-08-10 18:15:00,79.2,55.4,29.88,West,280,2.0,4.0,44,0.00,,,0.00,Wunderground v.1.15,2013-08-11 01:15:00,
2013-08-10 18:21:00,78.9,55.1,29.88,ENE,63,2.0,5.0,44,0.00,,,0.00,Wunderground v.1.15,2013-08-11 01:21:00,
2013-08-10 18:26:00,78.2,55.1,29.88,NNE,18,3.0,5.0,45,0.00,,,0.00,Wunderground v.1.15,2013-08-11 01:26:00,
2013-08-10 18:31:00,78.3,55.2,29.88,WNW,300,3.0,3.0,45,0.00,,,0.00,Wunderground v.1.15,2013-08-11 01:31:00,
2013-08-10 18:36:00,78.1,55.0,29.88,West,266,3.0,3.0,45,0.00,,,0.00,Wunderground v.1.15,2013-08-11 01:36:00,
2013-08-10 18:41:00,78.3,55.2,29.88,North,357,3.0,3.0,45,0.00,,,0.00,Wunderground v.1.15,2013-08-11 01:41:00,
2013-08-10 18:46:00,78.3,54.6,29.88,West,267,2.0,3.0,44,0.00,,,0.00,Wunderground v.1.15,2013-08-11 01:46:00,
2013-08-10 18:55:00,78.1,55.0,29.88,NW,307,2.0,2.0,45,0.00,,,0.00,Wunderground v.1.15,2013-08-11 01:55:00,
2013-08-10 19:00:00,77.6,54.6,29.88,WNW,283,2.0,2.0,45,0.00,,,0.00,Wunderground v.1.15,2013-08-11 02:00:00,
2013-08-10 19:06:00,77.4,55.0,29.88,NNW,344,2.0,2.0,46,0.00,,,0.00,Wunderground v.1.15,2013-08-11 02:06:00,
2013-08-10 19:15:00,75.7,55.2,29.88,NNW,340,2.0,3.0,49,0.00,,,0.00,Wunderground v.1.15,2013-08-11 02:15:00,
2013-08-10 19:20:00,74.8,54.9,29.88,SSE,158,3.0,3.0,50,0.00,,,0.00,Wunderground v.1.15,2013-08-11 02:20:00,
2013-08-10 19:25:00,74.0,55.3,29.88,NW,326,3.0,3.0,52,0.00,,,0.00,Wunderground v.1.15,2013-08-11 02:25:00,
2013-08-10 19:30:00,73.2,55.0,29.88,SW,226,2.0,4.0,53,0.00,,,0.00,Wunderground v.1.15,2013-08-11 02:30:00,
2013-08-10 19:36:00,72.7,55.1,29.88,ESE,117,2.0,2.0,54,0.00,,,0.00,Wunderground v.1.15,2013-08-11 02:36:00,
2013-08-10 19:41:00,72.2,55.1,29.88,NNE,26,1.0,2.0,55,0.00,,,0.00,Wunderground v.1.15,2013-08-11 02:41:00,
2013-08-10 19:46:00,71.6,55.1,29.88,NNW,339,2.0,3.0,56,0.00,,,0.00,Wunderground v.1.15,2013-08-11 02:46:00,
2013-08-10 19:51:00,71.1,55.1,29.88,WSW,252,2.0,3.0,57,0.00,,,0.00,Wunderground v.1.15,2013-08-11 02:51:00,
2013-08-10 20:00:00,70.5,55.0,29.88,WNW,286,1.0,1.0,58,0.00,,,0.00,Wunderground v.1.15,2013-08-11 03:00:00,
2013-08-10 20:06:00,70.2,55.2,29.88,NW,304,0.0,1.0,59,0.00,,,0.00,Wunderground v.1.15,2013-08-11 03:06:00,
2013-08-10 20:15:00,69.7,55.2,29.88,West,269,1.0,2.0,60,0.00,,,0.00,Wunderground v.1.15,2013-08-11 03:15:00,
2013-08-10 20:20:00,70.0,55.0,29.88,NW,309,2.0,2.0,59,0.00,,,0.00,Wunderground v.1.15,2013-08-11 03:20:00,
2013-08-10 20:25:00,70.1,55.1,29.88,SW,235,2.0,2.0,59,0.00,,,0.00,Wunderground v.1.15,2013-08-11 03:25:00,
2013-08-10 20:30:00,70.0,55.0,29.88,WNW,297,1.0,4.0,59,0.00,,,0.00,Wunderground v.1.15,2013-08-11 03:30:00,
2013-08-10 20:36:00,70.1,55.1,29.88,NNW,328,2.0,2.0,59,0.00,,,0.00,Wunderground v.1.15,2013-08-11 03:36:00,
2013-08-10 20:41:00,70.1,55.1,29.88,NW,313,2.0,2.0,59,0.00,,,0.00,Wunderground v.1.15,2013-08-11 03:41:00,
2013-08-10 20:46:00,69.7,54.7,29.88,NNW,336,1.0,1.0,59,0.00,,,0.00,Wunderground v.1.15,2013-08-11 03:46:00,
2013-08-10 20:55:00,69.5,55.0,29.88,NNW,340,1.0,4.0,60,0.00,,,0.00,Wunderground v.1.15,2013-08-11 03:55:00,
2013-08-10 21:00:00,69.5,55.0,29.88,WNW,287,2.0,2.0,60,0.00,,,0.00,Wunderground v.1.15,2013-08-11 04:00:00,
2013-08-10 21:06:00,69.4,55.4,29.89,WSW,247,3.0,3.0,61,0.00,,,0.00,Wunderground v.1.15,2013-08-11 04:06:00,
2013-08-10 21:15:00,68.7,55.2,29.89,SW,215,1.0,3.0,62,0.00,,,0.00,Wunderground v.1.15,2013-08-11 04:15:00,
2013-08-10 21:20:00,68.7,55.2,29.89,ESE,123,2.0,3.0,62,0.00,,,0.00,Wunderground v.1.15,2013-08-11 04:20:00,
2013-08-10 21:25:00,68.3,55.2,29.89,NW,326,1.0,1.0,63,0.00,,,0.00,Wunderground v.1.15,2013-08-11 04:25:00,
2013-08-10 21:31:00,68.3,55.2,29.89,NE,42,1.0,1.0,63,0.00,,,0.00,Wunderground v.1.15,2013-08-11 04:31:00,
2013-08-10 21:36:00,68.1,55.0,29.89,SW,233,1.0,4.0,63,0.00,,,0.00,Wunderground v.1.15,2013-08-11 04:36:00,
2013-08-10 21:41:00,68.1,55.0,29.90,ESE,117,1.0,4.0,63,0.00,,,0.00,Wunderground v.1.15,2013-08-11 04:41:00,
2013-08-10 21:46:00,67.9,55.3,29.90,East,90,1.0,1.0,64,0.00,,,0.00,Wunderground v.1.15,2013-08-11 04:46:00,
2013-08-10 21:51:00,67.3,54.7,29.90,East,100,0.0,1.0,64,0.00,,,0.00,Wunderground v.1.15,2013-08-11 04:51:00,
2013-08-10 21:56:00,67.2,55.0,29.90,WNW,300,0.0,2.0,65,0.00,,,0.00,Wunderground v.1.15,2013-08-11 04:56:00,
2013-08-10 22:06:00,67.4,55.2,29.90,NW,321,1.0,1.0,65,0.00,,,0.00,Wunderground v.1.15,2013-08-11 05:06:00,
2013-08-10 22:16:00,66.1,54.8,29.90,South,176,0.0,0.0,67,0.00,,,0.00,Wunderground v.1.15,2013-08-11 05:16:00,
2013-08-10 22:21:00,65.4,54.6,29.90,South,176,0.0,0.0,68,0.00,,,0.00,Wunderground v.1.15,2013-08-11 05:21:00,
2013-08-10 22:26:00,64.9,54.9,29.90,South,176,0.0,0.0,70,0.00,,,0.00,Wunderground v.1.15,2013-08-11 05:26:00,
2013-08-10 22:35:00,65.3,54.9,29.90,East,82,0.0,0.0,69,0.00,,,0.00,Wunderground v.1.15,2013-08-11 05:35:00,
2013-08-10 22:41:00,65.2,55.2,29.90,East,96,0.0,1.0,70,0.00,,,0.00,Wunderground v.1.15,2013-08-11 05:41:00,
2013-08-10 22:50:00,64.6,54.6,29.90,East,100,1.0,1.0,70,0.00,,,0.00,Wunderground v.1.15,2013-08-11 05:50:00,
2013-08-10 22:56:00,64.7,55.1,29.90,SE,132,0.0,0.0,71,0.00,,,0.00,Wunderground v.1.15,2013-08-11 05:56:00,
2013-08-10 23:01:00,64.8,54.8,29.90,ESE,108,0.0,0.0,70,0.00,,,0.00,Wunderground v.1.15,2013-08-11 06:01:00,
2013-08-10 23:06:00,64.7,55.1,29.90,East,91,1.0,1.0,71,0.00,,,0.00,Wunderground v.1.15,2013-08-11 06:06:00,
2013-08-10 23:16:00,64.6,55.0,29.90,SE,133,1.0,1.0,71,0.00,,,0.00,Wunderground v.1.15,2013-08-11 06:16:00,
2013-08-10 23:21:00,64.7,55.1,29.90,NNE,28,1.0,2.0,71,0.00,,,0.00,Wunderground v.1.15,2013-08-11 06:21:00,
2013-08-10 23:26:00,64.3,55.1,29.90,East,93,1.0,2.0,72,0.00,,,0.00,Wunderground v.1.15,2013-08-11 06:26:00,
2013-08-10 23:35:00,64.6,55.0,29.90,NNE,27,1.0,1.0,71,0.00,,,0.00,Wunderground v.1.15,2013-08-11 06:35:00,
2013-08-10 23:40:00,64.5,55.3,29.90,NNE,25,1.0,1.0,72,0.00,,,0.00,Wunderground v.1.15,2013-08-11 06:40:00,
2013-08-10 23:46:00,64.9,55.3,29.90,NNE,26,1.0,2.0,71,0.00,,,0.00,Wunderground v.1.15,2013-08-11 06:46:00,
2013-08-10 23:51:00,64.9,55.3,29.90,ENE,75,1.0,1.0,71,0.00,,,0.00,Wunderground v.1.15,2013-08-11 06:51:00,
2013-08-10 23:56:00,64.8,55.6,29.90,NW,317,1.0,1.0,72,0.00,,,0.00,Wunderground v.1.15,2013-08-11 06:56:00,